Location: Patterson (historical)
(35.1418°N, 90.5529°W)
Time: 18:38:58
(UTC+00:00)

MOS 1 Rocket - Pass Details

Date: 11 December 2025
Orbit: 609 x 814 km, 97.4° (Epoch: 20 January)

Event Time Altitude Azimuth Distance (km) Brightness Sun altitude
Rises 23:42:38 0° 159° (SSE) 3,057 6.6 -10.5°
Reaches altitude 10° 23:44:50 10° 156° (SSE) 2,175 5.8 -10.9°
Maximum altitude 23:49:34 64° 76° (ENE) 818 3.4 -11.8°
Drops below altitude 10° 23:54:37 10° 355° (N) 2,316 5.8 -12.8°
Sets 23:57:01 0° 353° (N) 3,273 6.6 -13.3°
